Overview Statistics Trail Chart Weather Telemetry Raw packets
 

This is the latest recevied weather packets stored in our database for station/object DF1GD-10. If no packets are shown the sender has not sent any weather packets the latest 10 day(s).

<< 19 20 21 22 23 24 25 >>
Time Temp. Humidity Pressure Rain* Wind** Luminosity Snow
1788243907 13.89° C 69% 1021.7 hPa - - - -
1788243007 13.33° C 70% 1021.6 hPa - - - -
1788242107 13.33° C 71% 1021.6 hPa - - - -
1788241206 13.33° C 69% 1021.4 hPa - - - -
1788240306 12.78° C 69% 1021.3 hPa - - - -
1788239406 12.78° C 69% 1021.2 hPa - - - -
1788238506 12.78° C 69% 1021.2 hPa - - - -
1788237606 12.78° C 69% 1021.1 hPa - - - -
1788236706 12.78° C 69% 1021.2 hPa - - - -
1788235806 12.78° C 70% 1021 hPa - - - -
1788234905 13.33° C 68% 1021 hPa - - - -
1788234005 13.33° C 68% 1020.9 hPa - - - -
1788233105 13.33° C 68% 1020.7 hPa - - - -
1788232205 13.33° C 69% 1020.9 hPa - - - -
1788231305 13.33° C 66% 1020.9 hPa - - - -
1788230405 13.89° C 66% 1020.8 hPa - - - -
1788229505 13.89° C 66% 1020.8 hPa - - - -
1788228605 13.89° C 65% 1020.8 hPa - - - -
1788227704 14.44° C 65% 1021 hPa - - - -
1788226804 14.44° C 65% 1020.8 hPa - - - -
1788225911 13.89° C 66% 1020.8 hPa - - - -
1788225004 13.89° C 67% 1020.8 hPa - - - -
1788224104 13.89° C 68% 1020.7 hPa - - - -
1788223204 13.89° C 67% 1020.6 hPa - - - -
1788222304 13.33° C 66% 1020.5 hPa - - - -

* Rain since midnight (hover to see other rain measurements)
** Current wind speed in m/s (hover to see current wind gust speed)